• In Norway
  • List of Countries
  • For 7 days
  • Water Temperature
  • Satellite Maps
  • Weather Map
  • Weather Widgets
  • user-avatar
    Login

    Hourly Weather Danowo

    Today, 20 August, Monday

    Time Temperature Precipitation Wind Pressure Humidity
    00:00 +20°C° 0 mm 2 mps 758 mmHg 66%
    01:00 +20°C° 0 mm 3 mps 757 mmHg 62%
    02:00 +20°C° 0 mm 3 mps 757 mmHg 63%
    03:00 +19°C° 0 mm 3 mps 757 mmHg 65%
    04:00 +19°C° 0 mm 3 mps 756 mmHg 66%
    05:00 +20°C° 0 mm 4 mps 756 mmHg 68%
    06:00 +20°C° 0 mm 4 mps 757 mmHg 70%
    07:00 +21°C° 0 mm 5 mps 756 mmHg 73%
    08:00 +22°C° 0 mm 5 mps 757 mmHg 70%
    09:00 +23°C° 0 mm 5 mps 757 mmHg 67%
    10:00 +24°C° 0 mm 6 mps 757 mmHg 65%
    11:00 +23°C° 0.1 mm 6 mps 757 mmHg 66%
    12:00 +23°C° 0.1 mm 5 mps 757 mmHg 68%
    13:00 +23°C° 0.1 mm 5 mps 757 mmHg 70%
    14:00 +23°C° 0.1 mm 5 mps 757 mmHg 70%
    15:00 +23°C° 0.1 mm 5 mps 757 mmHg 71%
    16:00 +22°C° 0.1 mm 5 mps 757 mmHg 71%
    17:00 +22°C° 0 mm 4 mps 758 mmHg 72%
    18:00 +21°C° 0 mm 4 mps 758 mmHg 74%
    19:00 +20°C° 0 mm 4 mps 758 mmHg 75%
    20:00 +20°C° 0 mm 4 mps 758 mmHg 75%
    21:00 +19°C° 0 mm 3 mps 758 mmHg 76%
    22:00 +18°C° 0 mm 3 mps 759 mmHg 76%
    23:00 +17°C° 0 mm 3 mps 759 mmHg 77%

    Tomorrow, 21 August, Tuesday

    Time Temperature Precipitation Wind Pressure Humidity
    00:00 +17°C° 0 mm 3 mps 759 mmHg 78%
    01:00 +16°C° 0 mm 3 mps 759 mmHg 79%
    02:00 +16°C° 0 mm 3 mps 759 mmHg 81%
    03:00 +14°C° 0 mm 3 mps 760 mmHg 83%
    04:00 +14°C° 0 mm 3 mps 760 mmHg 85%
    05:00 +14°C° 0 mm 3 mps 760 mmHg 82%
    06:00 +16°C° 0 mm 3 mps 761 mmHg 79%
    07:00 +17°C° 0 mm 4 mps 761 mmHg 76%
    08:00 +18°C° 0 mm 3 mps 761 mmHg 69%
    09:00 +19°C° 0 mm 3 mps 762 mmHg 63%
    10:00 +20°C° 0 mm 3 mps 762 mmHg 57%
    11:00 +21°C° 0 mm 3 mps 762 mmHg 54%
    12:00 +22°C° 0 mm 3 mps 762 mmHg 50%
    13:00 +22°C° 0 mm 3 mps 762 mmHg 47%
    14:00 +22°C° 0 mm 3 mps 762 mmHg 47%
    15:00 +22°C° 0 mm 3 mps 761 mmHg 48%
    16:00 +22°C° 0 mm 3 mps 761 mmHg 49%
    17:00 +21°C° 0 mm 3 mps 761 mmHg 55%
    18:00 +19°C° 0 mm 2 mps 761 mmHg 62%
    19:00 +18°C° 0 mm 2 mps 762 mmHg 69%
    20:00 +17°C° 0 mm 2 mps 762 mmHg 72%
    21:00 +16°C° 0 mm 2 mps 762 mmHg 76%
    22:00 +15°C° 0 mm 1 mps 762 mmHg 80%
    23:00 +15°C° 0 mm 1 mps 762 mmHg 80%

    Day after tomorrow, 22 August, Wednesday

    Time Temperature Precipitation Wind Pressure Humidity
    00:00 +14°C° 0 mm 1 mps 762 mmHg 81%
    01:00 +14°C° 0 mm 1 mps 762 mmHg 81%
    02:00 +14°C° 0 mm 2 mps 762 mmHg 82%
    03:00 +14°C° 0 mm 2 mps 762 mmHg 82%
    04:00 +13°C° 0 mm 2 mps 762 mmHg 83%
    05:00 +14°C° 0 mm 2 mps 762 mmHg 79%
    06:00 +16°C° 0 mm 2 mps 762 mmHg 75%
    07:00 +17°C° 0 mm 2 mps 762 mmHg 72%
    08:00 +19°C° 0 mm 2 mps 762 mmHg 64%
    09:00 +21°C° 0 mm 2 mps 762 mmHg 56%
    10:00 +24°C° 0 mm 2 mps 762 mmHg 48%
    11:00 +25°C° 0 mm 2 mps 761 mmHg 45%
    12:00 +26°C° 0 mm 2 mps 761 mmHg 42%
    13:00 +27°C° 0 mm 2 mps 761 mmHg 39%
    14:00 +27°C° 0 mm 2 mps 760 mmHg 39%
    15:00 +27°C° 0 mm 2 mps 760 mmHg 39%
    16:00 +28°C° 0 mm 2 mps 759 mmHg 38%
    17:00 +26°C° 0 mm 2 mps 759 mmHg 44%
    18:00 +25°C° 0 mm 2 mps 759 mmHg 49%
    19:00 +23°C° 0 mm 2 mps 758 mmHg 54%
    20:00 +22°C° 0 mm 3 mps 758 mmHg 54%
    21:00 +21°C° 0 mm 3 mps 758 mmHg 54%
    22:00 +21°C° 0 mm 3 mps 758 mmHg 55%
    23:00 +21°C° 0 mm 3 mps 758 mmHg 54%

    23 August, Thursday

    Time Temperature Precipitation Wind Pressure Humidity
    00:00 +21°C° 0 mm 3 mps 758 mmHg 54%
    01:00 +21°C° 0 mm 3 mps 757 mmHg 54%
    02:00 +21°C° 0 mm 3 mps 757 mmHg 56%
    03:00 +21°C° 0 mm 3 mps 757 mmHg 57%
    04:00 +21°C° 0 mm 3 mps 757 mmHg 59%
    05:00 +21°C° 0 mm 3 mps 757 mmHg 61%
    06:00 +21°C° 0 mm 3 mps 757 mmHg 63%
    07:00 +22°C° 0 mm 3 mps 756 mmHg 66%
    08:00 +24°C° 0 mm 3 mps 756 mmHg 61%
    09:00 +26°C° 0 mm 3 mps 756 mmHg 57%
    10:00 +28°C° 0 mm 3 mps 756 mmHg 52%
    11:00 +28°C° 0.1 mm 3 mps 756 mmHg 51%
    12:00 +29°C° 0.1 mm 3 mps 755 mmHg 50%
    13:00 +29°C° 0.1 mm 3 mps 755 mmHg 49%
    14:00 +29°C° 0 mm 2 mps 755 mmHg 50%
    15:00 +29°C° 0 mm 2 mps 754 mmHg 51%
    16:00 +29°C° 0 mm 2 mps 754 mmHg 52%
    17:00 +28°C° 0.1 mm 2 mps 754 mmHg 56%
    18:00 +26°C° 0.1 mm 2 mps 753 mmHg 61%
    19:00 +25°C° 0.1 mm 1 mps 753 mmHg 65%
    20:00 +24°C° 0.5 mm 1 mps 753 mmHg 70%
    21:00 +23°C° 0.5 mm 2 mps 753 mmHg 74%
    22:00 +21°C° 0.5 mm 2 mps 753 mmHg 79%
    23:00 +21°C° 0.1 mm 2 mps 753 mmHg 81%

    24 August, Friday

    Time Temperature Precipitation Wind Pressure Humidity
    00:00 +20°C° 0.1 mm 2 mps 752 mmHg 83%
    01:00 +20°C° 0.1 mm 2 mps 752 mmHg 85%
    02:00 +19°C° 0.1 mm 3 mps 752 mmHg 88%
    03:00 +19°C° 0.1 mm 3 mps 752 mmHg 90%
    04:00 +18°C° 0.1 mm 3 mps 752 mmHg 93%
    05:00 +18°C° 0.1 mm 3 mps 753 mmHg 91%
    06:00 +18°C° 0.1 mm 3 mps 753 mmHg 89%
    07:00 +18°C° 0.1 mm 3 mps 753 mmHg 87%
    08:00 +19°C° 0.1 mm 3 mps 753 mmHg 81%
    09:00 +19°C° 0.1 mm 4 mps 754 mmHg 74%
    10:00 +20°C° 0.1 mm 4 mps 754 mmHg 68%
    11:00 +21°C° 0 mm 4 mps 754 mmHg 61%
    12:00 +22°C° 0 mm 4 mps 754 mmHg 55%
    13:00 +23°C° 0 mm 4 mps 754 mmHg 48%
    14:00 +23°C° 0 mm 4 mps 754 mmHg 50%
    15:00 +22°C° 0 mm 3 mps 754 mmHg 51%
    16:00 +22°C° 0 mm 3 mps 754 mmHg 53%
    17:00 +21°C° 0.2 mm 3 mps 754 mmHg 58%
    18:00 +19°C° 0.2 mm 2 mps 754 mmHg 64%
    19:00 +18°C° 0.2 mm 2 mps 754 mmHg 69%
    20:00 +18°C° 0 mm 2 mps 754 mmHg 70%
    21:00 +17°C° 0 mm 2 mps 754 mmHg 71%
    22:00 +17°C° 0 mm 2 mps 755 mmHg 72%
    23:00 +16°C° 0 mm 2 mps 755 mmHg 72%

    25 August, Saturday

    Time Temperature Precipitation Wind Pressure Humidity
    00:00 +16°C° 0 mm 2 mps 755 mmHg 73%
    01:00 +16°C° 0 mm 2 mps 755 mmHg 73%
    02:00 +15°C° 0 mm 2 mps 755 mmHg 74%
    03:00 +15°C° 0 mm 2 mps 755 mmHg 75%
    04:00 +13°C° 0 mm 3 mps 756 mmHg 76%
    05:00 +13°C° 0 mm 3 mps 756 mmHg 76%
    06:00 +13°C° 0 mm 3 mps 756 mmHg 75%
    07:00 +13°C° 0 mm 3 mps 756 mmHg 74%
    08:00 +14°C° 0 mm 4 mps 756 mmHg 68%
    09:00 +15°C° 0 mm 4 mps 756 mmHg 61%
    10:00 +18°C° 0 mm 4 mps 756 mmHg 54%
    11:00 +19°C° 0 mm 4 mps 756 mmHg 49%
    12:00 +19°C° 0 mm 5 mps 756 mmHg 45%
    13:00 +20°C° 0 mm 5 mps 755 mmHg 40%
    14:00 +20°C° 0 mm 4 mps 755 mmHg 40%
    15:00 +20°C° 0 mm 4 mps 755 mmHg 40%
    16:00 +20°C° 0 mm 4 mps 755 mmHg 40%
    17:00 +19°C° 0 mm 3 mps 755 mmHg 45%
    18:00 +18°C° 0 mm 2 mps 755 mmHg 49%
    19:00 +18°C° 0 mm 1 mps 755 mmHg 54%
    20:00 +16°C° 0 mm 1 mps 755 mmHg 55%
    21:00 +15°C° 0 mm 2 mps 755 mmHg 56%
    22:00 +15°C° 0 mm 2 mps 756 mmHg 57%
    23:00 +14°C° 0 mm 2 mps 755 mmHg 58%
    Show more